Location: Wiler
(46.4041°N, 7.7840°E)
Time: 02:07:34
(UTC+00:00)

STARLINK-1244 - Pass Details

Date: 09 April 2020
Orbit: 549 x 550 km, 53.0° (Epoch: 26 May)

Event Time Altitude Azimuth Distance (km) Brightness Sun altitude
Rises 19:53:53 0° 300° (WNW) 2,725 8.9 -17.5°
Reaches altitude 10° 19:56:08 10° 302° (WNW) 1,829 7.6 -17.8°
Maximum altitude 20:00:18 73° 28° (NNE) 580 3.6 -18.4°
Enters shadow 20:01:31 44° 100° (E) 774 3.9 -18.6°
